Lid_Strength_Index
4 4 4 5 5 6 3 2 6 2 -0 5 5 6 5 9 5 4 5 5 6 6 6 7 7 7 6 5 5 7 5 7 9 8 6 5 6 7 7 10 10 9 10 12
4 4 4 5 5 6 4 4 3 0 1 7 7 5 5 5 5 5 5 6 5 5 6 8 6 6 5 4 5 6 5 8 10 9 7 6 7 6 7 7 7 10 11 11
4 4 4 5 5 5 3 4 6 4 3 3 5 6 6 6 4 5 4 5 5 6 7 5 7 6 5 4 5 5 4 7 8 11 10 8 9 8 7 8 11 10 9 9
4 4 4 4 5 5 3 3 5 4 7 6 6 5 6 7 7 5 5 6 6 6 8 7 7 6 5 5 5 4 5 8 7 7 7 8 9 9 8 10 9 11 8 8
4 4 4 4 5 6 2 5 5 4 5 4 5 6 6 7 6 6 7 7 6 6 7 7 9 7 7 7 5 6 5 9 8 9 7 7 10 8 9 8 9 9 7 7
4 4 4 4 5 5 2 2 2 4 6 5 6 6 6 6 6 5 5 5 6 7 6 5 5 5 5 5 6 7 7 8 9 11 8 9 11 9 9 8 8 8 10 6
5 4 4 4 5 5 4 2 3 5 7 5 6 6 5 6 5 6 5 5 6 5 3 3 4 4 5 5 5 5 7 8 9 11 10 14 8 6 6 8 8 7 7 6
5 5 4 3 4 5 4 2 3 5 7 5 5 6 6 5 5 5 5 4 3 2 4 7 8 7 7 7 6 5 5 7 10 12 12 10 8 6 7 8 9 7 7 6
5 5 4 4 4 5 4 2 2 3 6 6 5 6 5 7 6 6 5 3 2 3 6 7 11 11 9 9 8 5 5 6 9 10 13 14 9 6 4 5 10 6 6 6
5 5 5 4 4 4 4 3 1 3 6 4 4 6 6 5 5 6 5 5 5 3 7 9 10 10 7 10 10 9 9 10 11 11 12 9 6 6 4 10 10 6 6 6
5 5 5 5 4 4 5 3 1 4 6 5 4 3 4 4 5 7 5 6 6 6 8 9 9 9 8 8 7 8 10 11 11 11 14 15 6 7 9 7 5 5 5 5
4 4 4 3 4 5 5 4 2 2 4 4 2 2 2 3 3 4 4 5 5 5 7 7 7 9 8 9 11 6 10 9 11 10 11 7 5 7 6 4 5 5 4 4
4 4 4 3 3 4 4 4 3 3 4 4 4 4 2 1 2 2 6 4 3 4 3 6 7 9 7 10 9 8 6 5 8 9 8 8 6 5 6 5 5 4 3 3
5 5 4 4 3 4 5 5 3 3 5 7 5 2 3 2 2 2 2 3 2 2 3 6 7 8 5 8 7 8 7 6 7 7 6 6 5 5 5 5 4 4 3 3
4 5 5 4 4 4 5 4 3 2 5 7 6 4 3 3 3 3 2 2 3 4 6 6 8 6 6 6 7 8 5 7 8 9 6 6 5 5 4 5 5 4 3 3
4 4 4 4 5 5 5 5 2 2 3 6 8 4 3 3 3 3 2 2 3 4 5 6 5 4 6 9 10 6 5 4 4 6 4 4 4 3 3 4 4 3 3 3
4 4 4 4 4 5 6 6 4 5 3 7 8 7 4 3 3 3 3 3 4 4 5 6 6 6 6 8 11 6 5 4 4 4 4 5 4 5 3 3 3 2 2 2
4 4 4 4 4 5 6 4 5 5 5 6 9 8 6 3 5 5 3 4 5 5 6 5 7 7 7 10 6 6 5 5 4 4 3 4 3 3 3 3 3 3 3 3
4 4 3 4 4 4 2 2 4 3 4 7 8 9 9 3 5 4 4 5 7 5 7 7 6 8 10 7 6 6 5 5 5 4 4 4 4 4 4 3 3 4 3 3
4 4 6 6 2 2 2 3 5 5 5 6 9 6 8 5 6 6 6 6 8 10 7 5 8 9 7 6 5 4 5 5 5 6 6 5 5 5 4 4 3 3 3 3
4 6 5 2 2 3 4 7 7 7 8 6 6 7 7 4 7 8 6 8 7 11 9 9 10 10 7 5 4 4 4 4 4 4 4 4 4 4 4 4 3 3 3 3
5 5 3 2 4 5 8 8 7 8 9 6 7 7 5 5 3 6 6 9 8 12 6 9 11 9 6 5 5 4 4 4 4 4 5 4 4 4 4 3 3 3 3 2
4 5 5 5 6 11 10 11 10 9 6 5 6 7 5 5 4 7 8 11 11 6 10 11 8 7 6 5 5 5 4 4 4 4 4 4 4 3 3 4 3 2 3 2
6 7 12 8 9 8 7 7 7 5 5 5 5 6 7 5 8 8 11 8 8 12 12 11 8 6 6 5 5 5 5 5 5 4 4 4 4 4 3 3 2 3 3 3
6 6 11 8 5 5 5 4 4 4 4 5 6 6 7 8 9 8 9 11 12 11 11 8 6 5 5 5 5 5 5 5 5 4 4 4 4 4 3 2 2 3 3 3
5 5 7 6 6 6 5 5 5 4 4 4 5 8 9 10 9 10 11 11 12 10 7 6 5 5 5 5 5 4 4 4 4 4 4 3 3 3 3 2 3 3 2 3
6 6 4 5 5 6 5 4 5 2 4 8 7 10 10 7 11 11 9 11 9 6 5 5 4 5 5 4 4 4 4 4 4 4 3 4 3 3 3 4 3 3 2 2